Location: ???????
(55.4362°N, 38.1183°E)
Time: 01:40:26
(UTC+00:00)

METEOR M2 - Pass Details

Date: 01 December 2021
Orbit: 818 x 827 km, 98.4° (Epoch: 28 January)

Event Time Altitude Azimuth Distance (km) Brightness Sun altitude
Rises 17:00:06 0° 201° (SSW) 3,358 ? -32.5°
Reaches altitude 10° 17:02:52 10° 215° (SW) 2,429 ? -32.8°
Maximum altitude 17:07:16 25° 270° (W) 1,610 ? -33.5°
Drops below altitude 10° 17:11:41 10° 325° (NW) 2,440 ? -34.1°
Sets 17:14:28 0° 338° (NNW) 3,377 ? -34.5°
